Location: Asbacherhof
(48.8543°N, 10.7903°E)
Time: 21:44:07
(UTC+00:00)

Cosmos 292 Rocket - Pass Details

Date: 26 May 2022
Orbit: 674 x 692 km, 74.0° (Epoch: 29 June)

Event Time Altitude Azimuth Distance (km) Brightness Sun altitude
Exits shadow 01:48:16 15° 193° (SSW) 1,828 5.4 -12.0°
Maximum altitude 01:52:16 74° 110° (ESE) 716 3.9 -11.6°
Drops below altitude 10° 01:57:03 10° 26° (NNE) 2,132 7.8 -11.2°
Sets 01:59:22 0° 25° (NNE) 3,048 8.9 -10.9°
